Flag for Denmark Weather past 2 weeks in Aalborg, Denmark

Now
59 °F

Passing clouds.


Feels Like: 59 °F
Forecast: 52 / 62 °F
Wind: No wind

Location: Aalborg Airport

Current Time: Aug 31, 2014 at 12:53:02 AM

Latest Report: Aug 31, 2014 at 12:20 AM


Visibility: N/A

Pressure: 29.86 "Hg

Humidity: 94%

Dew point: 57 °F

Location of AalborgLocation

Historic Weather in Aalborg — Graph

°F

Aalborg temperature yesterday

Maximum temperature yesterday: 64 °F (at 11:50 AM)
Minimum temperature yesterday: 54 °F (at 4:20 AM)
Average temperature yesterday: 61 °F

Past Weeks' High & Low Weather Summary

 TemperatureHumidityPressure
High72 °F (Aug 27, 2:50 PM)100% (Aug 17, 6:50 AM)30.01 "Hg (Aug 17, 6:50 AM)
Low48 °F (Aug 26, 2:20 AM)38% (Aug 27, 2:50 PM)29.27 "Hg (Aug 18, 6:20 AM)
Average58 °F81%29.69 "Hg
* Reported Aug 15 11:20 PM — Aug 30 11:20 PM, Aalborg, Weather by CustomWeather, © 2014

Note: Actual official high and low records may vary slightly from our data, if they occured in-between our weather recording intervals... More about our weather records

Advertising

Aalborg weather history for previous 24 hours

 ConditionsComfort  
Time TempWeatherWind HumidityBarometerVisibility
11:20 PM
Aug 30
61 °FPartly cloudy.5 mph94%29.86 "HgN/A
10:50 PM59 °FPartly cloudy.2 mph94%29.86 "HgN/A
10:20 PM61 °FPartly cloudy.3 mph94%29.86 "HgN/A
9:50 PM61 °FPartly cloudy.7 mph94%29.86 "HgN/A
9:20 PM63 °FSprinkles. Scattered clouds.6 mph94%29.83 "Hg4 mi
8:50 PM63 °FSprinkles. Broken clouds.7 mph94%29.83 "Hg4 mi
8:20 PM63 °FPartly sunny.5 mph94%29.83 "Hg5 mi
7:20 PM64 °FPartly sunny.7 mph88%29.83 "HgN/A
6:50 PM64 °FBroken clouds.8 mph88%29.83 "HgN/A
6:20 PM64 °FScattered clouds.10 mph94%29.80 "HgN/A
5:50 PM64 °FScattered clouds.12 mph88%29.80 "HgN/A
5:20 PM63 °FBroken clouds.10 mph94%29.83 "HgN/A
4:50 PM63 °FLight rain. Broken clouds.13 mph94%29.83 "HgN/A
4:20 PM61 °FLight rain. Broken clouds.8 mph100%29.83 "Hg3 mi
3:50 PM63 °FLight rain. Partly sunny.10 mph94%29.83 "Hg4 mi
3:20 PM63 °FRain. Partly sunny.10 mph94%29.83 "Hg3 mi
2:56 PM63 °FRain. Partly sunny.14 mph94%29.83 "Hg2 mi
2:20 PM64 °FLight rain. Partly sunny.13 mph88%29.83 "HgN/A
1:50 PM63 °FLight rain. Broken clouds.12 mph94%29.83 "HgN/A
1:20 PM63 °FBroken clouds.13 mph94%29.83 "HgN/A
12:50 PM64 °FLight rain. Partly sunny.12 mph83%29.83 "HgN/A
12:20 PM64 °FLight rain. Broken clouds.14 mph83%29.83 "HgN/A
11:50 AM64 °FPartly sunny.13 mph83%29.83 "HgN/A
11:20 AM63 °FPartly sunny.12 mph88%29.86 "HgN/A
10:50 AM63 °FPartly sunny.10 mph88%29.86 "Hg5 mi
10:20 AM61 °FBroken clouds.10 mph94%29.86 "Hg5 mi
9:50 AM61 °FPartly sunny.9 mph94%29.86 "Hg5 mi
9:20 AM61 °FBroken clouds.7 mph94%29.86 "Hg5 mi
8:50 AM59 °FClear.7 mph94%29.86 "Hg5 mi
8:20 AM59 °FClear.7 mph94%29.86 "Hg4 mi
7:50 AM57 °FClear.6 mph100%29.86 "Hg6 mi
7:20 AM57 °FClear.5 mph94%29.86 "Hg4 mi
6:50 AM57 °FClear.2 mph94%29.86 "Hg4 mi
6:20 AM55 °FFog.1 mph100%29.86 "Hg3 mi
5:50 AM55 °FFog.2 mph100%29.86 "Hg1 mi
5:20 AM57 °FFog.5 mph94%29.86 "Hg1 mi
4:50 AM55 °FPassing clouds.No wind94%29.86 "Hg1 mi
4:20 AM54 °FPartly cloudy.1 mph100%29.86 "Hg0 mi
3:50 AM55 °FPassing clouds.1 mph100%29.86 "Hg0 mi
3:20 AM57 °FFog.5 mph94%29.86 "Hg1 mi
2:20 AM59 °FFog.2 mph94%29.86 "Hg1 mi
1:50 AM59 °FFog.3 mph100%29.86 "Hg1 mi
1:20 AM59 °FFog.2 mph100%29.86 "Hg2 mi
12:50 AM61 °FFog.2 mph94%29.86 "Hg2 mi
12:20 AM59 °FFog.No wind100%29.86 "Hg2 mi
Weather by CustomWeather, © 2014

See weather overviewHow to use our weather pages